Regional Weather Roundup
Issued by NWS

Home | Current Version | Previous Version | Graphics & Text | Print | Product List | Glossary On
Versions: 1 2 3 4 5 6 7 8 9 10 11 12 13 14 15 16 17 18 19 20 21 22 23 24 25 26 27 28 29 30 31 32 33 34 35 36 37 38 39 40 41 42 43 44 45 46 47 48 49 50
797
ASUS43 KDTX 181010
RWRMI
MICHIGAN HOURLY REGIONAL WEATHER ROUNDUP
NATIONAL WEATHER SERVICE DETROIT/PONTIAC MI
600 AM EDT WED OCT 18 2017

NOTE: "FAIR" INDICATES FEW OR NO CLOUDS BELOW 12,000 FEET WITH NO
SIGNIFICANT WEATHER AND/OR OBSTRUCTION TO VISIBILITY.

MIZ047>049-052>055-059>063-066>070-074>076-081>083-181100-
SOUTHEAST LOWER MICHIGAN

CITY           SKY/WX    TMP DP  RH WIND       PRES   REMARKS
ADRIAN         CLEAR     44  39  82 SW6       30.25R
ALMA           CLEAR     46  40  78 SW7       30.16S
ANN ARBOR      CLEAR     36  36 100 CALM      30.23R
BAD AXE        CLEAR     48  40  72 SW6       30.17S
CARO           CLEAR     49  39  69 S7        30.17S
DETROIT CITY   CLEAR     49  41  74 SW6       30.24R
DETROIT        CLEAR     45  40  82 S6        30.25R
FLINT          CLEAR     50  40  68 S6        30.20R
GROSSE ILE     CLEAR     50  41  72 SW5       30.24R
HILLSDALE      CLEAR     46  37  71 SW5       30.23R
HOWELL         CLEAR     49  40  72 S3        30.21R

CITY           SKY/WX    TMP DP  RH WIND       PRES   REMARKS
JACKSON        CLEAR     49  39  68 S7        30.22R
LAMBERTVILLE   CLEAR     47  40  75 SW3       30.25R
LANSING        CLEAR     49  39  68 SW8       30.20R
LAPEER         FAIR      43  41  93 CALM      30.20S
MASON          CLEAR     51  40  67 CALM      30.21R
MONROE         CLEAR     46  39  74 SW3       30.24R
MT. CLEMENS    CLEAR     47  42  82 SW6       30.21R
PONTIAC        CLEAR     48  41  76 S3        30.21R
PORT HOPE        N/A     53  41  63 SW8       30.13S
PORT HURON     PTCLDY    45  41  87 CALM      30.22R
TRI CITIES     CLEAR     49  42  77 S8        30.17S
MIDLAND        FAIR      47  42  81 CALM      30.15S
TROY           CLEAR     47  40  76 S3        30.25R
SAGINAW HB     CLEAR     46  41  81 S8        30.17R
$$
MIZ043>046-050>051-056>058-064>065-071>073-077>080-181100-
SOUTHWEST LOWER MICHIGAN

CITY           SKY/WX    TMP DP  RH WIND       PRES   REMARKS
BATTLE CREEK   CLEAR     47  41  80 SW7       30.21R
BENTON HARBOR  CLEAR     51  39  63 S7        30.19R
BIG RAPIDS     CLEAR     49  45  87 S5        30.13R
COLDWATER      CLEAR     47  38  70 S3        30.22S
FREMONT        FAIR      49  48  95 SE5       30.13S
HOLLAND        CLEAR     48  41  76 S6        30.17S
GRAND RAPIDS   CLEAR     50  42  74 S10       30.17S
IONIA          FAIR      49  39  69 SW7       30.17S
KALAMAZOO      CLEAR     46  40  79 S5        30.21R
LUDINGTON      CLEAR     58  48  69 S10G17    30.08S
MARSHALL       CLEAR     48  39  71 SW6       30.21S
MOUNT PLEASANT CLEAR     52  43  71 SW3       30.14S
MUSKEGON       CLEAR     59  49  69 SW14      30.14S
SOUTH HAVEN    CLEAR     50  40  69 S3        30.19R
$$
MIZ016>042-181100-
NORTHERN LOWER MICHIGAN

CITY           SKY/WX    TMP DP  RH WIND       PRES   REMARKS
ALPENA         CLEAR     48  45  89 S6        30.09R
BEAVER ISLAND  CLEAR     59  51  75 SW9G18    30.01R
BELLAIRE       CLEAR     50  46  85 S3        30.06S
CADILLAC       CLEAR     53  46  77 SW7       30.10S
CHARLEVOIX     CLEAR     55  48  79 S7        30.06S
FRANKFORT      CLEAR     60  51  74 S6        30.06R
GAYLORD        CLEAR     51  43  74 SW9       30.07S
GRAYLING       CLEAR     52  44  75 SW5       30.09S
HARBOR SPRINGS CLEAR     53  46  76 SW5       30.04R
HOUGHTON LAKE  CLEAR     51  46  83 S8        30.11S
MANISTEE       CLEAR     44  43  96 NE7       30.08R
OSCODA         CLEAR     48  43  81 SW8       30.12R
PELLSTON       CLEAR     52  46  80 S5        30.04R
ROGERS CITY    CLEAR     50  44  82 SW8       30.06R
TRAVERSE CITY  CLEAR     56  46  69 SW6       30.05S
$$
MIZ007>008-015-181100-
EASTERN UPPER MICHIGAN

CITY           SKY/WX    TMP DP  RH WIND       PRES   REMARKS
KINROSS        CLEAR     45  44  97 SE7       30.02S
MACKINAC ISLAN CLEAR     54  48  81 S12       30.02R
NEWBERRY       PTCLDY    53  52  97 S9        29.97S
S. S. MARIE    FOG       45  44  97 E5        30.01S VSB 1/2
MUNISING         N/A     52  49  89 S9        29.92S
$$
MIZ004>006-011>014-085-181100-
CENTRAL UPPER MICHIGAN

CITY           SKY/WX    TMP DP  RH WIND       PRES   REMARKS
MANISTIQUE     CLEAR     55  49  81 S7        29.97S
ESCANABA       CLEAR     50  46  86 SW7       29.96S
MENOMINEE      CLEAR     53  45  74 SW7       29.99S
SAWYER-GWINN   CLEAR     43  42  96 S7        29.93S
$$
MIZ001>003-009>011-084-181100-
WESTERN UPPER MICHIGAN

CITY           SKY/WX    TMP DP  RH WIND       PRES   REMARKS
IRON MOUNTAIN  CLEAR     43  39  86 SE3       29.94R
HOUGHTON       CLEAR     51  43  74 S5        29.84S
COPPER HARBOR    N/A     57  44  62 SW10G21   29.82F
IRONWOOD       CLEAR     54  44  69 SW9       29.87R
$$

ABBREVIATIONS USED IN REMARKS
   TC - TEMPERATURE IN CELSIUS
  WCI - WIND CHILL INDEX
   HX - HEAT INDEX
  VSB - VISIBILITY





USA.gov is the U.S. government's official web portal to all federal, state and local government web resources and services.